Time,TemperatureF,DewpointF,PressureIn,WindDirection,WindDirectionDegrees,WindSpeedMPH,WindSpeedGustMPH,Humidity,HourlyPrecipIn,Conditions,Clouds,dailyrainin,SoftwareType,DateUTC
2013-04-29 00:02:00,63.0,36.0,29.77,NNE,20,10.0,-999.0,36,-99.99,,,-99.99,,2013-04-29 05:02:00,
2013-04-29 00:12:00,63.0,36.0,29.77,NNE,20,9.0,-999.0,36,-99.99,,,-99.99,,2013-04-29 05:12:00,
2013-04-29 00:22:00,63.0,37.0,29.79,NNE,30,9.0,-999.0,39,-99.99,,,-99.99,,2013-04-29 05:22:00,
2013-04-29 00:32:00,63.0,37.0,29.79,NNE,20,9.0,-999.0,39,-99.99,,,-99.99,,2013-04-29 05:32:00,
2013-04-29 00:42:00,63.0,37.0,29.79,NNE,30,8.0,-999.0,39,-99.99,,,-99.99,,2013-04-29 05:42:00,
2013-04-29 00:52:00,61.0,37.0,29.79,NNE,20,10.0,-999.0,41,-99.99,,,-99.99,,2013-04-29 05:52:00,
2013-04-29 01:02:00,61.0,37.0,29.79,NNE,20,10.0,-999.0,41,-99.99,,,-99.99,,2013-04-29 06:02:00,
2013-04-29 01:11:00,61.0,37.0,29.79,North,10,9.0,-999.0,41,-99.99,,,-99.99,,2013-04-29 06:11:00,
2013-04-29 01:21:00,61.0,37.0,29.79,North,10,7.0,-999.0,41,-99.99,,,-99.99,,2013-04-29 06:21:00,
2013-04-29 01:32:00,59.0,39.0,29.79,North,10,9.0,-999.0,47,-99.99,,,-99.99,,2013-04-29 06:32:00,
2013-04-29 01:42:00,59.0,39.0,29.79,North,10,8.0,-999.0,47,-99.99,,,-99.99,,2013-04-29 06:42:00,
2013-04-29 01:51:00,61.0,39.0,29.80,North,10,9.0,-999.0,44,-99.99,,,-99.99,,2013-04-29 06:51:00,
2013-04-29 02:01:00,61.0,39.0,29.80,North,10,9.0,-999.0,44,-99.99,,,-99.99,,2013-04-29 07:01:00,
2013-04-29 02:11:00,59.0,39.0,29.80,North,10,8.0,-999.0,47,-99.99,,,-99.99,,2013-04-29 07:11:00,
2013-04-29 02:21:00,57.0,39.0,29.80,North,10,9.0,-999.0,50,-99.99,,,-99.99,,2013-04-29 07:21:00,
2013-04-29 02:32:00,57.0,39.0,29.80,North,360,7.0,-999.0,50,-99.99,,,-99.99,,2013-04-29 07:32:00,
2013-04-29 02:41:00,57.0,39.0,29.80,North,360,7.0,-999.0,50,-99.99,,,-99.99,,2013-04-29 07:41:00,
2013-04-29 02:52:00,55.0,39.0,29.80,NNW,340,9.0,-999.0,54,-99.99,,,-99.99,,2013-04-29 07:52:00,
2013-04-29 03:03:00,55.0,39.0,29.80,NNW,340,9.0,-999.0,54,-99.99,,,-99.99,,2013-04-29 08:03:00,
2013-04-29 03:11:00,55.0,39.0,29.81,NW,320,9.0,-999.0,54,-99.99,,,-99.99,,2013-04-29 08:11:00,
2013-04-29 03:21:00,55.0,39.0,29.80,NNW,340,8.0,-999.0,54,-99.99,,,-99.99,,2013-04-29 08:21:00,
2013-04-29 03:31:00,55.0,39.0,29.79,North,350,8.0,-999.0,54,-99.99,,,-99.99,,2013-04-29 08:31:00,
2013-04-29 03:42:00,55.0,39.0,29.79,North,360,8.0,-999.0,54,-99.99,,,-99.99,,2013-04-29 08:42:00,
2013-04-29 03:51:00,57.0,39.0,29.79,North,360,8.0,-999.0,50,-99.99,,,-99.99,,2013-04-29 08:51:00,
2013-04-29 04:01:00,57.0,39.0,29.79,North,360,8.0,-999.0,50,-99.99,,,-99.99,,2013-04-29 09:01:00,
2013-04-29 04:12:00,57.0,39.0,29.79,NNE,20,7.0,-999.0,50,-99.99,,,-99.99,,2013-04-29 09:12:00,
2013-04-29 04:21:00,57.0,39.0,29.79,North,360,9.0,-999.0,50,-99.99,,,-99.99,,2013-04-29 09:21:00,
2013-04-29 04:32:00,57.0,39.0,29.80,North,350,9.0,-999.0,50,-99.99,,,-99.99,,2013-04-29 09:32:00,
2013-04-29 04:42:00,57.0,39.0,29.79,North,360,8.0,-999.0,50,-99.99,,,-99.99,,2013-04-29 09:42:00,
2013-04-29 04:52:00,55.0,39.0,29.79,North,360,6.0,-999.0,54,-99.99,,,-99.99,,2013-04-29 09:52:00,
2013-04-29 05:02:00,55.0,39.0,29.79,North,360,6.0,-999.0,54,-99.99,,,-99.99,,2013-04-29 10:02:00,
2013-04-29 05:12:00,55.0,39.0,29.80,NNW,340,9.0,-999.0,54,-99.99,,,-99.99,,2013-04-29 10:12:00,
2013-04-29 05:23:00,55.0,41.0,29.80,NNW,340,10.0,-999.0,58,-99.99,,,-99.99,,2013-04-29 10:23:00,
2013-04-29 05:32:00,55.0,41.0,29.80,NNW,340,10.0,-999.0,58,-99.99,,,-99.99,,2013-04-29 10:32:00,
2013-04-29 05:42:00,55.0,41.0,29.80,NNW,340,12.0,-999.0,58,-99.99,,,-99.99,,2013-04-29 10:42:00,
2013-04-29 05:52:00,54.0,41.0,29.79,North,350,10.0,-999.0,62,-99.99,,,-99.99,,2013-04-29 10:52:00,
2013-04-29 06:02:00,54.0,41.0,29.79,North,350,10.0,-999.0,62,-99.99,,,-99.99,,2013-04-29 11:02:00,
2013-04-29 06:12:00,54.0,41.0,29.79,NNW,340,12.0,-999.0,62,-99.99,,,-99.99,,2013-04-29 11:12:00,
2013-04-29 06:21:00,54.0,41.0,29.80,NNW,330,12.0,-999.0,62,-99.99,,,-99.99,,2013-04-29 11:21:00,
2013-04-29 06:32:00,54.0,41.0,29.79,North,350,8.0,-999.0,62,-99.99,,,-99.99,,2013-04-29 11:32:00,
2013-04-29 06:41:00,54.0,41.0,29.79,North,350,9.0,-999.0,62,-99.99,,,-99.99,,2013-04-29 11:41:00,
2013-04-29 06:52:00,55.0,41.0,29.79,North,10,7.0,-999.0,58,-99.99,,,-99.99,,2013-04-29 11:52:00,
2013-04-29 07:01:00,55.0,41.0,29.79,North,10,7.0,-999.0,58,-99.99,,,-99.99,,2013-04-29 12:01:00,
2013-04-29 07:12:00,55.0,41.0,29.79,North,360,7.0,-999.0,58,-99.99,,,-99.99,,2013-04-29 12:12:00,
2013-04-29 07:22:00,54.0,41.0,29.79,NNW,330,3.0,-999.0,62,-99.99,,,-99.99,,2013-04-29 12:22:00,
2013-04-29 07:31:00,54.0,41.0,29.80,NW,320,7.0,-999.0,62,-99.99,,,-99.99,,2013-04-29 12:31:00,
2013-04-29 07:41:00,54.0,41.0,29.80,NNW,340,7.0,-999.0,62,-99.99,,,-99.99,,2013-04-29 12:41:00,
2013-04-29 07:52:00,55.0,41.0,29.81,NNW,340,7.0,-999.0,58,-99.99,,,-99.99,,2013-04-29 12:52:00,
2013-04-29 08:01:00,55.0,41.0,29.81,NNW,340,7.0,-999.0,58,-99.99,,,-99.99,,2013-04-29 13:01:00,
2013-04-29 08:11:00,55.0,41.0,29.80,NNW,340,8.0,-999.0,58,-99.99,,,-99.99,,2013-04-29 13:11:00,
2013-04-29 08:21:00,55.0,41.0,29.81,NNE,30,5.0,-999.0,58,-99.99,,,-99.99,,2013-04-29 13:21:00,
2013-04-29 08:31:00,55.0,43.0,29.81,North,360,6.0,-999.0,62,-99.99,,,-99.99,,2013-04-29 13:31:00,
2013-04-29 08:42:00,57.0,43.0,29.81,North,10,8.0,-999.0,58,-99.99,,,-99.99,,2013-04-29 13:42:00,
2013-04-29 08:52:00,57.0,41.0,29.80,North,10,9.0,-999.0,54,-99.99,,,-99.99,,2013-04-29 13:52:00,
2013-04-29 09:01:00,57.0,41.0,29.80,North,10,9.0,-999.0,54,-99.99,,,-99.99,,2013-04-29 14:01:00,
2013-04-29 09:11:00,59.0,41.0,29.79,North,10,9.0,-999.0,51,-99.99,,,-99.99,,2013-04-29 14:11:00,
2013-04-29 09:21:00,59.0,43.0,29.79,North,10,10.0,-999.0,54,-99.99,,,-99.99,,2013-04-29 14:21:00,
2013-04-29 09:32:00,61.0,43.0,29.78,NNE,30,9.0,-999.0,51,-99.99,,,-99.99,,2013-04-29 14:32:00,
2013-04-29 09:42:00,61.0,43.0,29.78,NE,40,6.0,-999.0,51,-99.99,,,-99.99,,2013-04-29 14:42:00,
2013-04-29 09:52:00,61.0,43.0,29.77,NE,50,9.0,-999.0,51,-99.99,,,-99.99,,2013-04-29 14:52:00,
2013-04-29 10:01:00,61.0,43.0,29.77,NE,50,9.0,-999.0,51,-99.99,,,-99.99,,2013-04-29 15:01:00,
2013-04-29 10:12:00,63.0,43.0,29.77,ENE,70,9.0,-999.0,48,-99.99,,,-99.99,,2013-04-29 15:12:00,
2013-04-29 10:21:00,63.0,43.0,29.77,ENE,70,9.0,-999.0,48,-99.99,,,-99.99,,2013-04-29 15:21:00,
2013-04-29 10:33:00,64.0,43.0,29.76,ENE,70,10.0,-999.0,45,-99.99,,,-99.99,,2013-04-29 15:33:00,
2013-04-29 10:42:00,64.0,43.0,29.77,East,90,8.0,-999.0,45,-99.99,,,-99.99,,2013-04-29 15:42:00,
2013-04-29 10:52:00,64.0,45.0,29.77,ENE,60,7.0,-999.0,48,-99.99,,,-99.99,,2013-04-29 15:52:00,
2013-04-29 11:02:00,64.0,45.0,29.77,ENE,60,7.0,-999.0,48,-99.99,,,-99.99,,2013-04-29 16:02:00,
2013-04-29 11:12:00,66.0,45.0,29.76,East,90,7.0,-999.0,45,-99.99,,,-99.99,,2013-04-29 16:12:00,
2013-04-29 11:23:00,68.0,45.0,29.76,ENE,70,6.0,-999.0,42,-99.99,,,-99.99,,2013-04-29 16:23:00,
2013-04-29 11:32:00,70.0,45.0,29.77,North,0,0.0,-999.0,40,-99.99,,,-99.99,,2013-04-29 16:32:00,
2013-04-29 11:42:00,70.0,45.0,29.76,ESE,110,3.0,-999.0,40,-99.99,,,-99.99,,2013-04-29 16:42:00,
2013-04-29 11:52:00,72.0,45.0,29.76,North,360,3.0,-999.0,37,-99.99,,,-99.99,,2013-04-29 16:52:00,
2013-04-29 12:02:00,72.0,45.0,29.76,North,360,3.0,-999.0,37,-99.99,,,-99.99,,2013-04-29 17:02:00,
2013-04-29 12:12:00,73.0,45.0,29.75,East,100,5.0,-999.0,35,-99.99,,,-99.99,,2013-04-29 17:12:00,
2013-04-29 12:22:00,73.0,45.0,29.75,ESE,110,7.0,-999.0,35,-99.99,,,-99.99,,2013-04-29 17:22:00,
2013-04-29 12:32:00,73.0,45.0,29.74,ESE,120,9.0,-999.0,35,-99.99,,,-99.99,,2013-04-29 17:32:00,
2013-04-29 12:42:00,75.0,45.0,29.74,SE,140,7.0,-999.0,33,-99.99,,,-99.99,,2013-04-29 17:42:00,
2013-04-29 12:52:00,75.0,45.0,29.73,SE,130,8.0,-999.0,33,-99.99,,,-99.99,,2013-04-29 17:52:00,
2013-04-29 13:01:00,75.0,45.0,29.73,SE,130,8.0,-999.0,33,-99.99,,,-99.99,,2013-04-29 18:01:00,
2013-04-29 13:13:00,75.0,45.0,29.72,SE,130,9.0,-999.0,33,-99.99,,,-99.99,,2013-04-29 18:13:00,
2013-04-29 13:22:00,79.0,45.0,29.72,SE,130,9.0,-999.0,29,-99.99,,,-99.99,,2013-04-29 18:22:00,
2013-04-29 13:32:00,79.0,45.0,29.71,SE,130,10.0,-999.0,29,-99.99,,,-99.99,,2013-04-29 18:32:00,
2013-04-29 13:42:00,79.0,45.0,29.71,East,100,10.0,-999.0,29,-99.99,,,-99.99,,2013-04-29 18:42:00,
2013-04-29 13:51:00,81.0,45.0,29.70,SE,130,10.0,-999.0,28,-99.99,,,-99.99,,2013-04-29 18:51:00,
2013-04-29 14:01:00,81.0,45.0,29.70,SE,130,10.0,-999.0,28,-99.99,,,-99.99,,2013-04-29 19:01:00,
2013-04-29 14:11:00,81.0,45.0,29.70,SE,130,7.0,-999.0,28,-99.99,,,-99.99,,2013-04-29 19:11:00,
2013-04-29 14:21:00,81.0,45.0,29.69,ESE,110,6.0,-999.0,28,-99.99,,,-99.99,,2013-04-29 19:21:00,
2013-04-29 14:31:00,81.0,45.0,29.69,East,100,7.0,-999.0,28,-99.99,,,-99.99,,2013-04-29 19:31:00,
2013-04-29 14:41:00,82.0,45.0,29.68,SE,130,8.0,-999.0,26,-99.99,,,-99.99,,2013-04-29 19:41:00,
2013-04-29 14:52:00,82.0,45.0,29.67,East,100,10.0,-999.0,26,-99.99,,,-99.99,,2013-04-29 19:52:00,
2013-04-29 15:02:00,82.0,45.0,29.67,East,100,10.0,-999.0,26,-99.99,,,-99.99,,2013-04-29 20:02:00,
2013-04-29 15:11:00,82.0,45.0,29.66,East,90,7.0,-999.0,26,-99.99,,,-99.99,,2013-04-29 20:11:00,
2013-04-29 15:21:00,82.0,45.0,29.65,East,100,6.0,-999.0,26,-99.99,,,-99.99,,2013-04-29 20:21:00,
2013-04-29 15:32:00,84.0,43.0,29.64,ESE,120,12.0,16.0,23,-99.99,,,-99.99,,2013-04-29 20:32:00,
2013-04-29 15:42:00,84.0,45.0,29.64,East,100,9.0,16.0,24,-99.99,,,-99.99,,2013-04-29 20:42:00,
2013-04-29 15:52:00,84.0,43.0,29.63,East,100,12.0,16.0,23,-99.99,,,-99.99,,2013-04-29 20:52:00,
2013-04-29 16:01:00,84.0,43.0,29.63,East,100,12.0,16.0,23,-99.99,,,-99.99,,2013-04-29 21:01:00,
2013-04-29 16:11:00,84.0,43.0,29.63,SE,130,9.0,-999.0,23,-99.99,,,-99.99,,2013-04-29 21:11:00,
2013-04-29 16:21:00,84.0,43.0,29.62,ESE,120,13.0,16.0,23,-99.99,,,-99.99,,2013-04-29 21:21:00,
2013-04-29 16:33:00,82.0,43.0,29.61,ESE,110,12.0,16.0,24,-99.99,,,-99.99,,2013-04-29 21:33:00,
2013-04-29 16:42:00,82.0,43.0,29.61,ESE,120,13.0,-999.0,24,-99.99,,,-99.99,,2013-04-29 21:42:00,
2013-04-29 16:53:00,84.0,43.0,29.60,North,-999,-999.0,-999.0,23,-99.99,,,-99.99,,2013-04-29 21:53:00,
2013-04-29 17:02:00,84.0,43.0,29.60,North,-999,-999.0,-999.0,23,-99.99,,,-99.99,,2013-04-29 22:02:00,
2013-04-29 17:13:00,82.0,43.0,29.60,East,100,12.0,20.0,24,-99.99,,,-99.99,,2013-04-29 22:13:00,
2013-04-29 17:23:00,84.0,43.0,29.59,SE,140,14.0,22.0,23,-99.99,,,-99.99,,2013-04-29 22:23:00,
2013-04-29 17:32:00,84.0,43.0,29.58,ESE,120,14.0,18.0,23,-99.99,,,-99.99,,2013-04-29 22:32:00,
2013-04-29 17:42:00,84.0,41.0,29.58,SE,130,12.0,18.0,21,-99.99,,,-99.99,,2013-04-29 22:42:00,
2013-04-29 17:52:00,84.0,39.0,29.57,ESE,110,10.0,-999.0,20,-99.99,,,-99.99,,2013-04-29 22:52:00,
2013-04-29 18:02:00,84.0,39.0,29.57,ESE,110,10.0,-999.0,20,-99.99,,,-99.99,,2013-04-29 23:02:00,
2013-04-29 18:11:00,84.0,43.0,29.57,East,100,9.0,18.0,23,-99.99,,,-99.99,,2013-04-29 23:11:00,
2013-04-29 18:22:00,82.0,45.0,29.57,ESE,110,10.0,16.0,26,-99.99,,,-99.99,,2013-04-29 23:22:00,
2013-04-29 18:32:00,82.0,45.0,29.56,ESE,120,12.0,-999.0,26,-99.99,,,-99.99,,2013-04-29 23:32:00,
2013-04-29 18:42:00,82.0,45.0,29.56,ESE,120,10.0,17.0,26,-99.99,,,-99.99,,2013-04-29 23:42:00,
2013-04-29 18:52:00,81.0,46.0,29.56,ESE,120,9.0,-999.0,30,-99.99,,,-99.99,,2013-04-29 23:52:00,
2013-04-29 19:01:00,81.0,46.0,29.56,ESE,120,9.0,-999.0,30,-99.99,,,-99.99,,2013-04-30 00:01:00,
2013-04-29 19:11:00,81.0,46.0,29.56,ESE,120,8.0,-999.0,30,-99.99,,,-99.99,,2013-04-30 00:11:00,
2013-04-29 19:21:00,79.0,46.0,29.56,ESE,120,5.0,-999.0,31,-99.99,,,-99.99,,2013-04-30 00:21:00,
2013-04-29 19:32:00,79.0,48.0,29.56,ESE,120,5.0,-999.0,34,-99.99,,,-99.99,,2013-04-30 00:32:00,
2013-04-29 19:41:00,79.0,48.0,29.56,East,100,5.0,-999.0,34,-99.99,,,-99.99,,2013-04-30 00:41:00,
2013-04-29 19:51:00,77.0,48.0,29.56,East,100,3.0,-999.0,36,-99.99,,,-99.99,,2013-04-30 00:51:00,
2013-04-29 20:02:00,77.0,48.0,29.56,East,100,3.0,-999.0,36,-99.99,,,-99.99,,2013-04-30 01:02:00,
2013-04-29 20:11:00,75.0,48.0,29.55,East,100,6.0,-999.0,38,-99.99,,,-99.99,,2013-04-30 01:11:00,
2013-04-29 20:21:00,73.0,48.0,29.54,ESE,110,5.0,-999.0,40,-99.99,,,-99.99,,2013-04-30 01:21:00,
2013-04-29 20:32:00,72.0,50.0,29.54,East,90,3.0,-999.0,46,-99.99,,,-99.99,,2013-04-30 01:32:00,
2013-04-29 20:41:00,72.0,50.0,29.54,East,100,5.0,-999.0,46,-99.99,,,-99.99,,2013-04-30 01:41:00,
2013-04-29 20:51:00,70.0,50.0,29.53,East,100,8.0,-999.0,49,-99.99,,,-99.99,,2013-04-30 01:51:00,
2013-04-29 21:01:00,70.0,50.0,29.53,East,100,8.0,-999.0,49,-99.99,,,-99.99,,2013-04-30 02:01:00,
2013-04-29 21:11:00,70.0,50.0,29.53,East,100,7.0,-999.0,49,-99.99,,,-99.99,,2013-04-30 02:11:00,
2013-04-29 21:21:00,66.0,50.0,29.53,ESE,110,6.0,-999.0,55,-99.99,,,-99.99,,2013-04-30 02:21:00,
2013-04-29 21:31:00,66.0,50.0,29.53,East,100,6.0,-999.0,55,-99.99,,,-99.99,,2013-04-30 02:31:00,
2013-04-29 21:41:00,66.0,50.0,29.53,East,100,6.0,-999.0,55,-99.99,,,-99.99,,2013-04-30 02:41:00,
2013-04-29 21:51:00,66.0,50.0,29.53,ESE,120,7.0,-999.0,55,-99.99,,,-99.99,,2013-04-30 02:51:00,
2013-04-29 22:01:00,66.0,50.0,29.53,ESE,120,7.0,-999.0,55,-99.99,,,-99.99,,2013-04-30 03:01:00,
2013-04-29 22:11:00,66.0,50.0,29.53,ESE,110,5.0,-999.0,55,-99.99,,,-99.99,,2013-04-30 03:11:00,
2013-04-29 22:21:00,66.0,50.0,29.52,East,100,5.0,-999.0,55,-99.99,,,-99.99,,2013-04-30 03:21:00,
2013-04-29 22:33:00,66.0,50.0,29.52,ESE,110,7.0,-999.0,55,-99.99,,,-99.99,,2013-04-30 03:33:00,
2013-04-29 22:42:00,66.0,50.0,29.52,ESE,110,8.0,-999.0,55,-99.99,,,-99.99,,2013-04-30 03:42:00,
2013-04-29 22:52:00,68.0,50.0,29.52,ESE,110,7.0,-999.0,52,-99.99,,,-99.99,,2013-04-30 03:52:00,
2013-04-29 23:02:00,68.0,50.0,29.52,ESE,110,7.0,-999.0,52,-99.99,,,-99.99,,2013-04-30 04:02:00,
2013-04-29 23:12:00,66.0,50.0,29.52,SE,130,8.0,-999.0,55,-99.99,,,-99.99,,2013-04-30 04:12:00,
2013-04-29 23:22:00,70.0,48.0,29.52,SE,140,9.0,-999.0,46,-99.99,,,-99.99,,2013-04-30 04:22:00,
2013-04-29 23:32:00,70.0,48.0,29.53,SSE,150,9.0,-999.0,46,-99.99,,,-99.99,,2013-04-30 04:32:00,
2013-04-29 23:42:00,70.0,48.0,29.53,SSE,150,9.0,-999.0,46,-99.99,,,-99.99,,2013-04-30 04:42:00,
2013-04-29 23:52:00,66.0,48.0,29.52,SSE,160,9.0,-999.0,52,-99.99,,,-99.99,,2013-04-30 04:52:00,